Location: Cazavet
(43.0017°N, 1.0431°E)
Time: 09:31:16
(UTC+00:00)

Cosmos 2278 Rocket - Pass Details

Date: 18 January 2026
Orbit: 839 x 846 km, 71.0° (Epoch: 9 February)

Event Time Altitude Azimuth Distance (km) Brightness Sun altitude
Exits shadow 04:14:28 24° 150° (SSE) 1,667 3.9 -34.1°
Maximum altitude 04:16:56 35° 105° (ESE) 1,326 3.6 -33.6°
Drops below altitude 10° 04:22:00 10° 41° (NE) 2,466 5.1 -32.7°
Sets 04:24:38 0° 33° (NNE) 3,406 5.8 -32.2°
